When you browse on this site, cookies collect data to enhance your experience and personalize the content and advertising you see.
Visit our Privacy Policy to learn more. By continuing to use the site, you agree to this use of cookies and data.
  • In Spain
  • List of Countries
  • For 7 days
  • Water Temperature
  • Weather Map
  • Weather Widgets
  • user-avatar
    Login

    Hourly Weather Molepolole

    Today, 29 February, Saturday

    Time Temperature Precipitation Wind Pressure Humidity
    00:00 +25°C° 0 mm 5 mps 665 mmHg 43%
    01:00 +23°C° 0 mm 6 mps 665 mmHg 55%
    02:00 +21°C° 0 mm 7 mps 665 mmHg 63%
    03:00 +21°C° 0 mm 7 mps 665 mmHg 65%
    04:00 +20°C° 0 mm 7 mps 665 mmHg 67%
    05:00 +18°C° 0 mm 7 mps 665 mmHg 69%
    06:00 +20°C° 0 mm 8 mps 666 mmHg 67%
    07:00 +20°C° 0 mm 8 mps 667 mmHg 65%
    08:00 +20°C° 0 mm 8 mps 667 mmHg 62%
    09:00 +22°C° 0 mm 8 mps 668 mmHg 56%
    10:00 +24°C° 0 mm 8 mps 668 mmHg 51%
    11:00 +27°C° 0 mm 8 mps 668 mmHg 45%
    12:00 +28°C° 0 mm 7 mps 668 mmHg 42%
    13:00 +29°C° 0 mm 7 mps 668 mmHg 39%
    14:00 +32°C° 0 mm 7 mps 667 mmHg 36%
    15:00 +30°C° 0 mm 6 mps 667 mmHg 37%
    16:00 +30°C° 0 mm 6 mps 666 mmHg 38%
    17:00 +29°C° 0 mm 5 mps 666 mmHg 39%
    18:00 +28°C° 0 mm 5 mps 666 mmHg 43%
    19:00 +26°C° 0 mm 4 mps 666 mmHg 46%
    20:00 +25°C° 0 mm 4 mps 666 mmHg 50%
    21:00 +23°C° 0 mm 4 mps 666 mmHg 51%
    22:00 +23°C° 0 mm 4 mps 666 mmHg 53%
    23:00 +22°C° 0 mm 5 mps 667 mmHg 54%

    Tomorrow, 1 March, Sunday

    Time Temperature Precipitation Wind Pressure Humidity
    00:00 +21°C° 0 mm 5 mps 666 mmHg 57%
    01:00 +20°C° 0 mm 5 mps 666 mmHg 61%
    02:00 +19°C° 0 mm 5 mps 666 mmHg 64%
    03:00 +19°C° 0 mm 5 mps 666 mmHg 67%
    04:00 +18°C° 0 mm 4 mps 666 mmHg 70%
    05:00 +17°C° 0 mm 4 mps 665 mmHg 73%
    06:00 +17°C° 0 mm 5 mps 666 mmHg 72%
    07:00 +17°C° 0 mm 5 mps 667 mmHg 71%
    08:00 +19°C° 0 mm 5 mps 667 mmHg 70%
    09:00 +21°C° 0 mm 5 mps 668 mmHg 62%
    10:00 +23°C° 0 mm 6 mps 668 mmHg 54%
    11:00 +26°C° 0 mm 6 mps 668 mmHg 46%
    12:00 +27°C° 0 mm 5 mps 668 mmHg 42%
    13:00 +28°C° 0 mm 4 mps 667 mmHg 39%
    14:00 +30°C° 0 mm 3 mps 667 mmHg 35%
    15:00 +30°C° 0 mm 3 mps 666 mmHg 34%
    16:00 +30°C° 0 mm 2 mps 665 mmHg 34%
    17:00 +29°C° 0 mm 2 mps 665 mmHg 34%
    18:00 +28°C° 0 mm 2 mps 665 mmHg 37%
    19:00 +27°C° 0 mm 2 mps 664 mmHg 40%
    20:00 +25°C° 0 mm 2 mps 664 mmHg 43%
    21:00 +24°C° 0 mm 2 mps 665 mmHg 45%
    22:00 +24°C° 0 mm 2 mps 665 mmHg 47%
    23:00 +23°C° 0 mm 2 mps 665 mmHg 49%

    Day after tomorrow, 2 March, Monday

    Time Temperature Precipitation Wind Pressure Humidity
    00:00 +21°C° 0.1 mm 2 mps 665 mmHg 53%
    01:00 +21°C° 0.1 mm 3 mps 665 mmHg 57%
    02:00 +20°C° 0.1 mm 3 mps 665 mmHg 61%
    03:00 +19°C° 0 mm 3 mps 665 mmHg 67%
    04:00 +19°C° 0 mm 3 mps 664 mmHg 72%
    05:00 +18°C° 0 mm 3 mps 664 mmHg 78%
    06:00 +19°C° 0 mm 3 mps 665 mmHg 74%
    07:00 +20°C° 0 mm 3 mps 665 mmHg 70%
    08:00 +20°C° 0 mm 3 mps 666 mmHg 65%
    09:00 +21°C° 0.2 mm 3 mps 666 mmHg 62%
    10:00 +23°C° 0.2 mm 2 mps 666 mmHg 59%
    11:00 +24°C° 0.2 mm 2 mps 666 mmHg 55%
    12:00 +26°C° 0 mm 3 mps 665 mmHg 48%
    13:00 +28°C° 0 mm 3 mps 665 mmHg 40%
    14:00 +30°C° 0 mm 4 mps 665 mmHg 33%
    15:00 +30°C° 0 mm 4 mps 665 mmHg 32%
    16:00 +32°C° 0 mm 4 mps 665 mmHg 31%
    17:00 +32°C° 0 mm 4 mps 664 mmHg 30%
    18:00 +29°C° 0.4 mm 4 mps 664 mmHg 39%
    19:00 +26°C° 0.4 mm 4 mps 664 mmHg 49%
    20:00 +22°C° 0.4 mm 4 mps 664 mmHg 58%
    21:00 +22°C° 0.5 mm 4 mps 664 mmHg 62%
    22:00 +21°C° 0.5 mm 4 mps 665 mmHg 66%
    23:00 +21°C° 0.5 mm 3 mps 665 mmHg 69%

    3 March, Tuesday

    Time Temperature Precipitation Wind Pressure Humidity
    00:00 +20°C° 0 mm 2 mps 664 mmHg 71%
    01:00 +19°C° 0 mm 2 mps 664 mmHg 73%
    02:00 +20°C° 0 mm 1 mps 664 mmHg 74%
    03:00 +19°C° 0 mm 1 mps 664 mmHg 77%
    04:00 +19°C° 0 mm 1 mps 664 mmHg 80%
    05:00 +18°C° 0 mm 1 mps 664 mmHg 83%
    06:00 +18°C° 0 mm 2 mps 664 mmHg 79%
    07:00 +19°C° 0 mm 2 mps 665 mmHg 76%
    08:00 +20°C° 0 mm 3 mps 666 mmHg 73%
    09:00 +24°C° 0 mm 3 mps 666 mmHg 63%
    10:00 +26°C° 0 mm 3 mps 667 mmHg 53%
    11:00 +28°C° 0 mm 3 mps 667 mmHg 42%
    12:00 +30°C° 0 mm 3 mps 667 mmHg 37%
    13:00 +32°C° 0 mm 4 mps 667 mmHg 31%
    14:00 +33°C° 0 mm 4 mps 666 mmHg 26%
    15:00 +33°C° 0 mm 4 mps 666 mmHg 27%
    16:00 +32°C° 0 mm 4 mps 666 mmHg 28%
    17:00 +32°C° 0 mm 4 mps 665 mmHg 29%
    18:00 +29°C° 0 mm 3 mps 665 mmHg 32%
    19:00 +28°C° 0 mm 3 mps 666 mmHg 36%
    20:00 +27°C° 0 mm 3 mps 666 mmHg 39%
    21:00 +26°C° 0 mm 3 mps 666 mmHg 42%
    22:00 +25°C° 0 mm 3 mps 666 mmHg 45%
    23:00 +24°C° 0 mm 3 mps 666 mmHg 48%

    4 March, Wednesday

    Time Temperature Precipitation Wind Pressure Humidity
    00:00 +22°C° 0 mm 3 mps 666 mmHg 53%
    01:00 +21°C° 0 mm 3 mps 666 mmHg 58%
    02:00 +20°C° 0 mm 3 mps 666 mmHg 63%
    03:00 +20°C° 0 mm 3 mps 666 mmHg 68%
    04:00 +19°C° 0 mm 3 mps 667 mmHg 74%
    05:00 +18°C° 0 mm 3 mps 667 mmHg 79%
    06:00 +19°C° 0 mm 4 mps 667 mmHg 76%
    07:00 +20°C° 0 mm 4 mps 668 mmHg 73%
    08:00 +20°C° 0 mm 5 mps 669 mmHg 70%
    09:00 +23°C° 0 mm 5 mps 669 mmHg 59%
    10:00 +26°C° 0 mm 5 mps 669 mmHg 49%
    11:00 +28°C° 0 mm 5 mps 669 mmHg 38%
    12:00 +30°C° 0 mm 5 mps 669 mmHg 34%
    13:00 +32°C° 0 mm 5 mps 669 mmHg 30%
    14:00 +33°C° 0 mm 5 mps 668 mmHg 26%
    15:00 +33°C° 0 mm 5 mps 668 mmHg 26%
    16:00 +33°C° 0 mm 4 mps 667 mmHg 25%
    17:00 +33°C° 0 mm 4 mps 667 mmHg 25%
    18:00 +30°C° 0 mm 3 mps 667 mmHg 28%
    19:00 +28°C° 0 mm 3 mps 667 mmHg 32%
    20:00 +27°C° 0 mm 2 mps 667 mmHg 35%
    21:00 +26°C° 0 mm 2 mps 667 mmHg 39%
    22:00 +25°C° 0 mm 3 mps 667 mmHg 42%
    23:00 +23°C° 0 mm 4 mps 667 mmHg 45%

    5 March, Thursday

    Time Temperature Precipitation Wind Pressure Humidity
    00:00 +22°C° 0 mm 3 mps 667 mmHg 49%
    01:00 +21°C° 0 mm 3 mps 667 mmHg 52%
    02:00 +20°C° 0 mm 3 mps 666 mmHg 56%
    03:00 +19°C° 0 mm 3 mps 666 mmHg 58%
    04:00 +19°C° 0 mm 3 mps 666 mmHg 60%
    05:00 +18°C° 0 mm 2 mps 666 mmHg 62%
    06:00 +19°C° 0 mm 3 mps 667 mmHg 58%
    07:00 +20°C° 0 mm 3 mps 668 mmHg 54%
    08:00 +21°C° 0 mm 3 mps 668 mmHg 50%
    09:00 +24°C° 0 mm 3 mps 668 mmHg 45%
    10:00 +26°C° 0 mm 3 mps 669 mmHg 39%
    11:00 +28°C° 0 mm 2 mps 669 mmHg 34%
    12:00 +30°C° 0 mm 3 mps 668 mmHg 30%
    13:00 +31°C° 0 mm 3 mps 668 mmHg 27%
    14:00 +34°C° 0 mm 3 mps 667 mmHg 23%
    15:00 +34°C° 0 mm 4 mps 667 mmHg 22%
    16:00 +34°C° 0 mm 4 mps 666 mmHg 21%
    17:00 +34°C° 0 mm 4 mps 666 mmHg 20%
    18:00 +30°C° 0 mm 4 mps 665 mmHg 24%
    19:00 +28°C° 0 mm 3 mps 665 mmHg 28%
    20:00 +26°C° 0 mm 2 mps 665 mmHg 31%
    21:00 +25°C° 0 mm 2 mps 665 mmHg 33%
    22:00 +24°C° 0 mm 1 mps 665 mmHg 35%
    23:00 +23°C° 0 mm 1 mps 665 mmHg 37%
    Show more